Regional Weather Roundup
Issued by NWS

Home | Current Version | Previous Version | Text Only | Print | Product List | Glossary Off
Versions: 1 2 3 4 5 6 7 8 9 10 11 12 13 14 15 16 17 18 19 20 21 22 23 24 25 26 27 28 29 30 31 32 33 34 35 36 37 38 39 40 41 42 43 44 45 46 47 48 49 50

652
ASUS43 KMKX 170521
RWRWI

WISCONSIN REGIONAL WEATHER ROUNDUP
NATIONAL WEATHER SERVICE MILWAUKEE/SULLIVAN WI
1100 PM CST SAT DEC 16 2017

NOTE: "FAIR" INDICATES FEW OR NO CLOUDS BELOW 12,000 FEET WITH NO
SIGNIFICANT WEATHER AND/OR OBSTRUCTIONS TO VISIBILITY.

WIZ001-002-006>008-014>016-023>028-170600-
NORTHWEST WISCONSIN

CITY           SKY/WX    TMP DP  RH WIND       PRES   REMARKS
SUPERIOR ARPT  CLOUDY    21  16  81 CALM      30.15S
ASHLAND        CLOUDY    21  14  74 MISG      30.15R
HAYWARD        CLOUDY    21  15  78 CALM      30.12R
SIREN          CLOUDY    19  15  84 CALM      30.13R
CUMBERLAND     CLOUDY    19  16  86 SE5       30.12R WCI  13
RICE LAKE      CLOUDY    22  19  87 CALM      30.15R
CHETEK         CLOUDY    23  20  88 CALM      30.14R
LADYSMITH      CLOUDY    23  19  85 CALM      30.14R
EAU CLAIRE     CLOUDY    24  22  91 E5        30.13R WCI  18
MENOMONIE      CLOUDY    23  20  91 N3        30.13R
NEW RICHMOND   CLOUDY    15  12  85 NE5       30.13R WCI   8
OSCEOLA        PTCLDY    19  16  85 CALM      30.16S
$$

WIZ003>005-009-010-017-018-170600-
NORTH CENTRAL WISCONSIN

CITY           SKY/WX    TMP DP  RH WIND       PRES   REMARKS
MANITOWISH WTR CLOUDY    18  18 100 S5        30.11S WCI  11
ARBOR VITAE    CLOUDY    22  20  93 SE6       30.11R WCI  14
WOODRUFF       CLOUDY    22  20  93 SE6       30.11R WCI  14
RHINELANDER    CLOUDY    20  19  96 SE5       30.12R FOG     WCI  13
EAGLE RIVER    CLOUDY    19  19 100 SE3       30.11S
LAND O LAKES   CLOUDY    19  18  94 SE3       30.13R
PHILLIPS       CLOUDY    20  18  93 SE3       30.11S
TOMAHAWK       CLOUDY    20  19  94 CALM      30.13R
MEDFORD        CLOUDY    21  18  88 SE5       30.11R WCI  15
MERRILL        CLOUDY    22  20  93 CALM      30.14S
$$

WIZ029-030-035-036-043>047-170600-
CENTRAL WISCONSIN

CITY           SKY/WX    TMP DP  RH WIND       PRES   REMARKS
WAUSAU         CLOUDY    21  19  92 E7        30.12R WCI  12
MOSINEE        NOT AVBL
MARSHFIELD     CLOUDY    23  19  85 E6        30.11R WCI  16
STEVENS POINT  CLOUDY    21  20  94 E5        30.15R WCI  15
WAUPACA        CLOUDY    26  21  82 N5        30.17R WCI  20
WAUTOMA        CLOUDY    25  21  86 NE7       30.15R WCI  17
WISC RAPIDS    CLOUDY    24  19  81 E5        30.16R WCI  18
CAMP DOUGLAS   CLOUDY    26  22  85 NE5       30.11F WCI  21
$$

WIZ011>013-019>022-031-037>040-048>050-170600-
NORTHEAST WISCONSIN

CITY           SKY/WX    TMP DP  RH WIND       PRES   REMARKS
ANTIGO         CLOUDY    19  19  97 E6        30.14R WCI  11
SHAWANO        CLOUDY    23  19  86 N6        30.18R WCI  16
OCONTO         CLOUDY    22  19  88 N5        30.19R WCI  16
STURGEON BAY   CLOUDY    27  22  81 NE6       30.18R WCI  20
GREEN BAY      CLOUDY    28  22  78 NE7       30.16R WCI  21
MANITOWOC      CLOUDY    29  25  85 CALM      30.17
APPLETON       CLOUDY    25  19  80 NE6       30.13R WCI  18
CLINTONVILLE   CLOUDY    23  18  80 N5        30.16R WCI  17
OSHKOSH        CLOUDY    27  23  85 NE6       30.15R WCI  20
$$

WIZ032>034-041-042-053>061-170600-
SOUTHWEST WISCONSIN

CITY           SKY/WX    TMP DP  RH WIND       PRES   REMARKS
LA CROSSE      CLOUDY    29  26  89 N5        30.09F WCI  24
SPARTA         CLOUDY    26  24  92 NE5       30.12F WCI  21
VIROQUA        CLOUDY    27  27 100 CALM      30.06F
BOSCOBEL       CLOUDY    32  28  85 E6        30.09F WCI  26
PRAIRIE DU CHI CLOUDY    32  27  83 E5        30.08S WCI  27
PLATTEVILLE    MOCLDY    31  31 100 E14       30.06S WCI  21
$$

WIZ056-057-062-063-064-067-068-170600-
SOUTH CENTRAL WISCONSIN

CITY           SKY/WX    TMP DP  RH WIND       PRES   REMARKS
REEDSBURG      CLOUDY    28  24  87 NE5       30.09F WCI  22
BARABOO/DELLS  CLOUDY    28  24  84 NE6       30.09F WCI  21
LONE ROCK      CLOUDY    32  28  85 E12       30.10F FOG     WCI  23
MINERAL POINT  CLOUDY    32  32 100 E13       30.06F WCI  22
MADISON        CLOUDY    30  26  85 NE6       30.11S WCI  24
MIDDLETON      CLOUDY    32  28  84 E8        30.10F WCI  25
WATERTOWN      CLOUDY    31  31  99 NE5       30.10S WCI  26
MONROE         CLOUDY    32  32 100 NE9       30.07S FOG     WCI  24
JANESVILLE     CLOUDY    34  34 100 E12       30.08S FOG     WCI  25
$$

WIZ051-052-058>065-066-070>072-170600-
SOUTHEAST WISCONSIN

CITY           SKY/WX    TMP DP  RH WIND       PRES   REMARKS
MILWAUKEE      CLOUDY    35  32  88 E10       30.12R WCI  27
WAUKESHA       CLOUDY    32  30  93 NE9       30.11S WCI  24
MILWAUKEE/TIMM CLOUDY    32  28  86 E7        30.13R WCI  26
RACINE         CLOUDY    35  32  88 E9        30.13R WCI  28
BURLINGTON     CLOUDY    51  51 100 E5        30.10S FOG
KENOSHA        CLOUDY    36  32  85 NE10      30.10R WCI  28
FOND DU LAC    CLOUDY    30  23  75 N6        30.14R WCI  24
SHEBOYGAN      CLOUDY    31  29  92 E5        30.15R WCI  26
WEST BEND      CLOUDY    32  30  93 E5        30.12S WCI  27
JUNEAU         CLOUDY    28  25  89 CALM      30.12S
$$

LSZ147-162-170600-
LAKE SUPERIOR

STATION/POSITION TIME  TEMP    WIND        PRES    WAVE
                       AIR SEA DIR/SP/G            HT/PER
                 (UTC) (F)     (DEG/KT/KT) (MB)    (FT/S)
DEVILS ISLAND    0500   25     200/  8/ 11 1022.3R
SAXON HARBOR     0440   23                 1020.3S
$$

LMZ867-665-643>646-170600-
LAKE MICHIGAN

STATION/POSITION TIME  TEMP    WIND        PRES    WAVE
                       AIR SEA DIR/SP/G            HT/PER
                 (UTC) (F)     (DEG/KT/KT) (MB)    (FT/S)
NORTHPORT PIER   0440   27      60/ 13/ 16 1022.4S
KEWAUNEE LAKESHO 0500   30      90/  5/  9 1020.5
SHEBOYGAN LAKESH 0500   33      70/  8/  9 1021.4R
PORT WASHINGTON  0430   35      90/  8/ 10 1021.3R
MILWAUKEE LAKESH 0500   35      70/ 12/ 13   N/A
KENOSHA   LAKESH 0500   36      60/ 12/ 14 1019.3
$$

TC  - TEMPERATURE IN CELSIUS
VSB - VISIBILITY IN STATUTE MILES
WCI - WIND CHILL INDEX
HX  - HEAT INDEX





USA.gov is the U.S. government's official web portal to all federal, state and local government web resources and services.